TimeCDT,TemperatureF,Dew PointF,Humidity,Sea Level PressureIn,VisibilityMPH,Wind Direction,Wind SpeedMPH,Gust SpeedMPH,PrecipitationIn,Events,Conditions,WindDirDegrees,DateUTC
12:15 AM,87.8,64.4,46,29.93,10.0,SSE,6.9,-,N/A,,Clear,160,2013-08-07 05:15:00
12:35 AM,87.8,66.2,49,29.94,10.0,SSE,6.9,-,N/A,,Clear,150,2013-08-07 05:35:00
12:55 AM,87.8,68.0,52,29.94,10.0,SSE,8.1,-,N/A,,Clear,160,2013-08-07 05:55:00
1:15 AM,86.0,69.8,58,29.95,10.0,SSE,9.2,-,N/A,,Clear,160,2013-08-07 06:15:00
1:35 AM,86.0,68.0,55,29.95,10.0,SSE,8.1,-,N/A,,Clear,160,2013-08-07 06:35:00
1:55 AM,84.2,68.0,58,29.95,10.0,South,5.8,-,N/A,,Clear,170,2013-08-07 06:55:00
2:15 AM,84.2,68.0,58,29.95,10.0,Calm,Calm,-,N/A,,Clear,0,2013-08-07 07:15:00
2:35 AM,82.4,68.0,62,29.95,10.0,Calm,Calm,-,N/A,,Clear,0,2013-08-07 07:35:00
2:55 AM,82.4,68.0,62,29.95,10.0,Calm,Calm,-,N/A,,Clear,0,2013-08-07 07:55:00
3:15 AM,82.4,68.0,62,29.94,10.0,Calm,Calm,-,N/A,,Clear,0,2013-08-07 08:15:00
3:35 AM,80.6,68.0,65,29.95,10.0,Calm,Calm,-,N/A,,Clear,0,2013-08-07 08:35:00
3:55 AM,80.6,68.0,65,29.95,10.0,Calm,Calm,-,N/A,,Clear,0,2013-08-07 08:55:00
4:15 AM,80.6,68.0,65,29.94,10.0,Calm,Calm,-,N/A,,Clear,0,2013-08-07 09:15:00
4:35 AM,80.6,68.0,65,29.94,10.0,Calm,Calm,-,N/A,,Clear,0,2013-08-07 09:35:00
4:55 AM,80.6,69.8,70,29.94,10.0,Calm,Calm,-,N/A,,Clear,0,2013-08-07 09:55:00
5:15 AM,78.8,68.0,69,29.94,10.0,Calm,Calm,-,N/A,,Clear,0,2013-08-07 10:15:00
5:35 AM,78.8,69.8,74,29.94,10.0,Calm,Calm,-,N/A,,Clear,0,2013-08-07 10:35:00
5:55 AM,78.8,69.8,74,29.94,10.0,Calm,Calm,-,N/A,,Clear,0,2013-08-07 10:55:00
6:15 AM,77.0,69.8,78,29.93,10.0,Calm,Calm,-,N/A,,Clear,0,2013-08-07 11:15:00
6:35 AM,75.2,69.8,83,29.94,10.0,Calm,Calm,-,N/A,,Clear,0,2013-08-07 11:35:00
6:55 AM,75.2,69.8,83,29.93,8.0,Calm,Calm,-,N/A,,Clear,0,2013-08-07 11:55:00
7:15 AM,73.4,69.8,88,29.94,8.0,Calm,Calm,-,N/A,,Clear,0,2013-08-07 12:15:00
7:35 AM,75.2,69.8,83,29.94,9.0,Calm,Calm,-,N/A,,Clear,0,2013-08-07 12:35:00
7:55 AM,77.0,71.6,83,29.95,9.0,Calm,Calm,-,N/A,,Clear,0,2013-08-07 12:55:00
8:15 AM,78.8,71.6,78,29.95,9.0,Calm,Calm,-,N/A,,Clear,0,2013-08-07 13:15:00
8:35 AM,80.6,71.6,74,29.96,9.0,Calm,Calm,-,N/A,,Clear,0,2013-08-07 13:35:00
8:55 AM,80.6,71.6,74,29.96,10.0,South,3.5,-,N/A,,Clear,180,2013-08-07 13:55:00
9:15 AM,82.4,71.6,70,29.97,10.0,South,6.9,-,N/A,,Clear,190,2013-08-07 14:15:00
9:35 AM,84.2,71.6,66,29.97,10.0,Calm,Calm,-,N/A,,Clear,0,2013-08-07 14:35:00
9:55 AM,84.2,71.6,66,29.97,9.0,Calm,Calm,-,N/A,,Clear,0,2013-08-07 14:55:00
10:15 AM,87.8,71.6,58,29.97,9.0,Calm,Calm,-,N/A,,Clear,0,2013-08-07 15:15:00
10:35 AM,89.6,71.6,55,29.97,10.0,Calm,Calm,-,N/A,,Clear,0,2013-08-07 15:35:00
10:55 AM,89.6,69.8,52,29.97,10.0,SSW,4.6,-,N/A,,Clear,200,2013-08-07 15:55:00
11:15 AM,91.4,69.8,49,29.96,10.0,SW,9.2,-,N/A,,Clear,230,2013-08-07 16:15:00
11:35 AM,93.2,69.8,46,29.96,10.0,Calm,Calm,-,N/A,,Clear,0,2013-08-07 16:35:00
11:55 AM,93.2,69.8,46,29.96,10.0,Calm,Calm,-,N/A,,Clear,0,2013-08-07 16:55:00
12:15 PM,96.8,68.0,39,-9999,10.0,North,-9999.0,-,N/A,,Clear,0,2013-08-07 17:15:00
12:35 PM,96.8,66.2,37,29.95,10.0,South,4.6,-,N/A,,Partly Cloudy,170,2013-08-07 17:35:00
12:55 PM,98.6,68.0,37,29.94,9.0,Calm,Calm,-,N/A,,Partly Cloudy,0,2013-08-07 17:55:00
1:15 PM,98.6,66.2,35,29.93,10.0,Calm,Calm,-,N/A,,Clear,0,2013-08-07 18:15:00
1:35 PM,100.4,66.2,33,29.93,10.0,SW,4.6,-,N/A,,Partly Cloudy,220,2013-08-07 18:35:00
1:55 PM,102.2,64.4,29,29.92,10.0,SSW,3.5,-,N/A,,Clear,210,2013-08-07 18:55:00
2:15 PM,102.2,64.4,29,29.91,10.0,Calm,Calm,-,N/A,,Clear,0,2013-08-07 19:15:00
2:35 PM,-9999,-9999,N/A,-9999,-9999.0,North,-9999.0,-,N/A,,Unknown,0,2013-08-07 19:35:00
2:55 PM,-9999,-9999,N/A,-9999,-9999.0,North,-9999.0,-,N/A,,Unknown,0,2013-08-07 19:55:00
3:15 PM,-9999,-9999,N/A,-9999,-9999.0,North,-9999.0,-,N/A,,Unknown,0,2013-08-07 20:15:00
3:35 PM,-9999,-9999,N/A,-9999,-9999.0,North,-9999.0,-,N/A,,Unknown,0,2013-08-07 20:35:00
3:55 PM,-9999,-9999,N/A,-9999,-9999.0,North,-9999.0,-,N/A,,Unknown,0,2013-08-07 20:55:00
4:15 PM,-9999,-9999,N/A,-9999,-9999.0,North,-9999.0,-,N/A,,Unknown,0,2013-08-07 21:15:00
4:35 PM,105.8,60.8,23,29.84,10.0,SSE,8.1,-,N/A,,Unknown,160,2013-08-07 21:35:00
4:55 PM,-9999,-9999,N/A,-9999,-9999.0,North,-9999.0,-,N/A,,Unknown,0,2013-08-07 21:55:00
5:15 PM,-9999,-9999,N/A,-9999,-9999.0,North,-9999.0,-,N/A,,Unknown,0,2013-08-07 22:15:00
5:35 PM,-9999,-9999,N/A,-9999,-9999.0,North,-9999.0,-,N/A,,Unknown,0,2013-08-07 22:35:00
5:55 PM,104.0,62.6,26,29.82,10.0,SE,11.5,18.4,N/A,,Unknown,130,2013-08-07 22:55:00
6:15 PM,102.2,60.8,26,29.82,10.0,ESE,13.8,20.7,N/A,,Clear,120,2013-08-07 23:15:00
6:35 PM,102.2,60.8,26,29.82,10.0,SE,12.7,18.4,N/A,,Clear,140,2013-08-07 23:35:00
6:55 PM,102.2,60.8,26,29.82,10.0,SE,13.8,17.3,N/A,,Clear,140,2013-08-07 23:55:00
7:15 PM,100.4,60.8,27,29.82,10.0,SSE,10.4,-,N/A,,Clear,150,2013-08-08 00:15:00
7:35 PM,100.4,60.8,27,29.83,10.0,SSE,9.2,-,N/A,,Clear,160,2013-08-08 00:35:00
7:55 PM,98.6,59.0,27,29.83,10.0,SSE,6.9,16.1,N/A,,Clear,160,2013-08-08 00:55:00
8:15 PM,98.6,57.2,25,29.83,10.0,SSE,10.4,-,N/A,,Clear,150,2013-08-08 01:15:00
8:35 PM,96.8,57.2,27,29.84,10.0,SSE,5.8,-,N/A,,Clear,160,2013-08-08 01:35:00
8:55 PM,95.0,55.4,26,29.85,10.0,SSE,6.9,-,N/A,,Clear,150,2013-08-08 01:55:00
9:15 PM,93.2,55.4,28,29.86,10.0,SSE,6.9,-,N/A,,Clear,150,2013-08-08 02:15:00
9:35 PM,93.2,55.4,28,29.87,10.0,SSE,3.5,-,N/A,,Clear,160,2013-08-08 02:35:00
9:55 PM,93.2,55.4,28,29.87,10.0,SSE,5.8,-,N/A,,Clear,160,2013-08-08 02:55:00
10:15 PM,91.4,55.4,29,29.89,10.0,SSE,5.8,-,N/A,,Clear,160,2013-08-08 03:15:00
10:35 PM,91.4,55.4,29,29.90,10.0,Calm,Calm,-,N/A,,Clear,0,2013-08-08 03:35:00
10:55 PM,89.6,57.2,33,29.90,10.0,Calm,Calm,-,N/A,,Clear,0,2013-08-08 03:55:00
11:15 PM,87.8,57.2,35,29.91,10.0,Calm,Calm,-,N/A,,Clear,0,2013-08-08 04:15:00
11:35 PM,86.0,57.2,37,29.92,10.0,Calm,Calm,-,N/A,,Clear,0,2013-08-08 04:35:00
11:55 PM,87.8,62.6,43,29.92,10.0,SSE,5.8,-,N/A,,Clear,160,2013-08-08 04:55:00